Regional Weather Roundup
Issued by NWS Newport/Morehead, NC

Current Version | Previous Version | Text Only | Print | Product List | Glossary Off
Versions: 1 2 3 4 5 6 7 8 9 10 11 12 13 14 15 16 17 18 19 20 21 22 23 24 25 26 27 28 29 30 31 32 33 34 35 36 37 38 39 40 41 42 43 44 45 46 47 48 49 50

000
ASUS42 KMHX 012113
RWRMHX
WEATHER ROUNDUP FOR EASTERN NORTH CAROLINA
NATIONAL WEATHER SERVICE NEWPORT/MOREHEAD CITY NC
500 PM EDT WED JUL 01 2015

NOTE: "FAIR" INDICATES FEW OR NO CLOUDS BELOW 12,000 FEET
WITH NO SIGNIFICANT WEATHER AND/OR OBSTRUCTIONS TO VISIBILITY

NCZ015>017-031-032-045>047-102-103-012200-
NORTH COAST

CITY           SKY/WX    TMP DP  RH WIND       PRES   REMARKS
EDENTON          N/A     86  67  52 W6        29.91F
ELIZABETH CITY SUNNY     85  70  60 S10       29.90F
KITTY HAWK     CLEAR     89  68  49 W5        29.90F
MANTEO         MOSUNNY   87  68  52 SW9       29.91F

$$

NCZ045>047-081-094-103-104-012200-
CENTRAL COAST

CITY           SKY/WX    TMP DP  RH WIND       PRES   REMARKS
FRISCO         SUNNY     81  74  79 SW15G22   29.94S
SWANQUARTER      N/A     90 N/A N/A S3        29.88S

$$

NCZ095-097-098-100-101-012200-
SOUTHERN COAST

CITY           SKY/WX    TMP DP  RH WIND       PRES   REMARKS
BEAUFORT       SUNNY     82  74  76 SW17      29.93F
CEDAR ISLAND     N/A     86 N/A N/A S14       29.94F
JACKSONVILLE   PTSUNNY   85  71  63 W8        29.93R
PINEY ISLAND   CLEAR    N/A N/A N/A SW14G22   29.91F
WILMINGTON     MOSUNNY   87  70  56 W12       29.94S


$$

NCZ011>013-027>030-043-044-078>080-089-090>093-098-012200-
COASTAL PLAIN

CITY           SKY/WX    TMP DP  RH WIND       PRES   REMARKS
AHOSKIE        SUNNY     83  69  63 CALM      29.90F
CLINTON        MOSUNNY   83  73  72 SW3       29.94F
ELIZABETHTOWN  MOSUNNY   83  70  66 SW5       29.95F
GOLDSBORO      SUNNY     85  71  63 VRB6      29.90F
GREENVILLE     SUNNY     86  70  58 SW7       29.93F
HAVELOCK       CLOUDY    85  73  67 SW13      29.93F
KENANSVILLE    MOSUNNY   82  70  67 SW3       29.95F
KINSTON        MOSUNNY   84  70  61 SW8       29.94S
NEW BERN       MOSUNNY   86  72  62 W8        29.93F
RICHLANDS      MOSUNNY   84  70  61 W7        29.94S
ROCKY MOUNT    MOSUNNY   88  67  49 SW9       29.91F
WASHINGTON     SUNNY     86  69  56 SW9       29.92S
WHITEVILLE     MOSUNNY   84  71  64 CALM      29.95F

$$

AMZ130-135-150-152-154-156-158-170-250-252-270-ANZ085-086-088-633-658-670-012200-
MARINE OBSERVATIONS

STATION/POSITION TIME  TEMP    WIND        PRES    WAVE   SWELL
                       AIR SEA DIR/SP/G            HT/PER HT/PER
                 (UTC) (F)     (DEG/KT/KT) (MB)    (FT/S) (FT/S)
CHESAPEAKE LIGHT 2000   78     340/  3/  3 1013.1
64 E VA BEACH    2050   78 77  210/ 10/ 12 1012.2    5/ 7   5/ 7
DUCK             2000   83 65  240/ 12/ 15 1012.2
2 E DUCK         2011      74                N/A     2/ 8
OREGON INLET     2000   82 84  190/ 17/ 19 1013.1
13E OREGON INLT  2100      74                N/A     4/ 7
HATTERAS CG      2000   81 81  220/ 13/ 18 1013.6
DIAMOND BUOY     2050   80 83  230/ 19/ 21 1013.6    5/ 8   2/ 8
CAPE LOOKOUT     2100   81     210/ 11/ 15 1013.5
BEAUFORT LAB     2000   82 82  220/  9/ 13 1013.5
30 SE NEW RVR IN 2008   80 81  230/ 16/ 19 1014.6
27 SE WRIGHTSVLE 2000      80  230/ 14/ 17   N/A
5 SE WRIGHTSVLE  2008   79 81  210/ 17/ 21 1013.7
225 S CAPE HAT   2050   82 80  220/ 17/ 19 1018.2    6/ 8   3/12
41 SE CHARLESTON 2050   80 82  230/ 17/ 21 1015.1    5/ 6   2/ 8

$$


USA.gov is the U.S. government's official web portal to all federal, state and local government web resources and services.